Location: *
(46.1833°N, 22.7667°E)
Time: 21:13:06
(UTC+00:00)

ARGOS - Pass Details

Date: 17 September 2019
Orbit: 821 x 834 km, 98.5° (Epoch: 17 October)

Event Time Altitude Azimuth Distance (km) Brightness Sun altitude
Exits shadow 17:49:40 14° 135° (SE) 2,118 4.8 -13.1°
Maximum altitude 17:53:54 44° 68° (ENE) 1,124 3.5 -13.8°
Drops below altitude 10° 17:59:00 10° 358° (N) 2,439 5.9 -14.7°
Sets 18:01:27 0° 352° (N) 3,379 6.7 -15.1°
